{"data":{"norad_id":58514,"epoch":"2026-09-20T21:15:06.330816Z","epoch_age_seconds":113666,"freshness":"FRESH","line1":"1 58514U 23191G   26263.88548994 -.00000110  00000+0  55273-5 0  9992","line2":"2 58514  43.0034  81.1038 0001048 288.4360  71.6378 15.27576436154978","mean_motion":15.27576436,"eccentricity":0.0001048,"inclination_deg":43.0034,"raan_deg":81.1038,"arg_perigee_deg":288.436,"mean_anomaly_deg":71.6378,"bstar":5.5273e-6,"rev_number":15497,"period_min":94.266968648108,"perigee_km":482.34071453726,"apogee_km":483.77882137983,"semimajor_km":6861.1967679585,"source":"CELESTRAK","updated_at":"2026-09-21T09:00:33.907836Z"}}